Regional Weather Roundup
Issued by NWS

Home | Current Version | Previous Version | Graphics & Text | Print | Product List | Glossary On
Versions: 1 2 3 4 5 6 7 8 9 10 11 12 13 14 15 16 17 18 19 20 21 22 23 24 25 26 27
000
ASUS45 KBOU 241310
RWRCO

WEATHER ROUNDUP FOR COLORADO
NATIONAL WEATHER SERVICE DENVER/BOULDER CO
700 AM MDT SAT SEP 24 2016

NOTE: "FAIR" INDICATES FEW OR NO CLOUDS BELOW 12000 FEET WITH NO
SIGNIFICANT WEATHER AND/OR OBSTRUCTIONS TO VISIBILITY.

COZ001>005-013-030-031-241400-
...NORTHWEST COLORADO...

CITY           SKY/WX    TMP DP  RH WIND       PRES   REMARKS
CRAIG          CLOUDY    43  35  73 SW9       30.07R
HAYDEN         CLOUDY    39  34  81 SE3       30.08R
MEEKER         LGT RAIN  41  38  89 SW8       30.09R
MOUNT WERNER   NOT AVBL
STEAMBOAT SPGS CLOUDY    37  36  96 E5        30.07F
WALDEN           N/A     34  30  86 S7G17     30.10R WCI  28
$$

COZ006>008-011-241400-
...WEST CENTRAL VALLEYS...

CITY           SKY/WX    TMP DP  RH WIND       PRES   REMARKS
GRAND JUNCTION CLOUDY    47  42  83 W3        30.10R
MONTROSE       CLOUDY    44  38  79 CALM      30.15R
EAGLE          CLOUDY    37  36  93 E6        30.13S
RIFLE          LGT RAIN  44  41  89 SE3       30.10R
DELTA          CLOUDY    47  39  73 NE6       30.13R
NUCLA          CLOUDY    46  34  61 E5        30.18R
$$

COZ017>023-064>068-241400-
...SOUTHWEST COLORADO...

CITY           SKY/WX    TMP DP  RH WIND       PRES   REMARKS
DURANGO        FAIR      32  29  88 CALM      30.19S
CORTEZ         CLOUDY    42  38  85 NE5       30.17R
PAGOSA SPRINGS FAIR      30  29  98 CALM      30.22R
TELLURIDE      CLOUDY    37  26  62 CALM      30.23S
WOLF CREEK PAS FAIR      21  21 100 MISG      30.29S
$$

COZ009-010-012-014-032>034-037-058>063-241400-
...CENTRAL COLORADO...

CITY           SKY/WX    TMP DP  RH WIND       PRES   REMARKS
ASPEN          CLOUDY    35  33  92 VRB5      30.12R WCI  31
BUENA VISTA    MOCLDY    34  26  72 CALM      30.12S
COPPER MTN     FLURRIES  28  19  69 MISG      30.19R
BERTHOUD PASS  FAIR      19   5  53 W29G45    30.13S WCI   1
COTTONWOOD PAS FAIR      37  21  52 W14G26    30.13F
GUNNISON       CLOUDY    34  30  86 CALM      30.19S
KREMMLING      LGT RAIN  37  30  75 W6        30.12S
LEADVILLE      MOCLDY    32  19  58 CALM      30.14R
SALIDA         CLOUDY    41  26  55 N5        30.19R
SUNLIGHT       LGT SNOW  30  30 100 MISG      30.19S
WILKERSON PASS FAIR      23  19  86 SW9       30.17R WCI  13
$$

COZ069>075-241400-
...SAN LUIS VALLEY/SANGRE DE CRISTO MOUNTAINS...

CITY           SKY/WX    TMP DP  RH WIND       PRES   REMARKS
ALAMOSA        FOG       28  28 100 W7        30.19R VSB 1/2 WCI  21
LA VETA PASS   NOT AVBL
SAGUACHE       NOT AVBL
$$

COZ035-036-038>040-241400-
...NORTHERN COLORADO FRONT RANGE...

CITY           SKY/WX    TMP DP  RH WIND       PRES   REMARKS
DENVER INTL AP MOCLDY    38  30  73 SE8       29.98R
DMNS CITY PARK   N/A     44  35  69 NW3       29.99R
AURORA         MOCLDY    46  22  37 S8        29.98F
FRONT RANGE AP NOT AVBL
ERIE MUNI ARPT FAIR      41  39  91 SE3       29.99R
BOULDER MUN AP FAIR      41  41 100 CALM      29.97S
CENTENNIAL     MOCLDY    46  22  38 S10       29.99R
BROOMFIELD     NOT AVBL
FORT COLLINS   FAIR      41  37  87 SE7       29.98F
LONGMONT       FAIR      43  41  92 SE7       30.00R
$$

COZ041-046-047-076>085-087-088-241400-
...PIKES PEAK/PALMER DIVIDE AND SOUTHERN FOOTHILLS...

CITY           SKY/WX    TMP DP  RH WIND       PRES   REMARKS
COLO. SPRINGS  FAIR      44  22  41 N5        30.05R
A. F. ACADEMY  FAIR      41  20  42 E5        30.04R
SCHRIEVER AFB  NOT AVBL
ELLICOTT       FAIR     N/A N/A N/A E5        30.03R
FALCON         FAIR      40  18  42 W5        30.06R
FORT CARSON    FAIR      46  21  37 NW7       30.01R
LIMON          FAIR      29  28  96 CALM      30.02R
MONUMENT HILL  FAIR      41  19  42 S12G17    30.06R
TRINIDAD       FAIR      38  27  64 VRB5      30.07R
$$

COZ042>045-048>051-090-091-241400-
...NORTHEAST COLORADO...

CITY           SKY/WX    TMP DP  RH WIND       PRES   REMARKS
GREELEY ARPT   FAIR      41  39  93 SW6       29.99R
AKRON          FAIR      39  35  86 SW8       30.00R
BURLINGTON     MOCLDY    45  39  79 NW6       30.01R
WRAY           NOT AVBL
STERLING       FAIR      37  36  93 W7        29.95S
HOLYOKE        FAIR      46  41  81 W3        29.96R
FORT MORGAN    FAIR      36  34  92 SW3       30.00R
$$

COZ086-089-092>099-241400-
...SOUTHEAST COLORADO...

CITY           SKY/WX    TMP DP  RH WIND       PRES   REMARKS
PUEBLO         FAIR      42  25  50 NE3       30.01R
LA JUNTA       FAIR      53  29  39 SW6       30.01R
LAMAR          FAIR      43  35  73 SW7       29.99S
SPRINGFIELD    NOT AVBL
$$




USA.gov is the U.S. government's official web portal to all federal, state and local government web resources and services.